GLD1204 SBSN-SBBV

Flight info

Callsign GLD1204
Flight time 1h 26m
Altitude 38000
Route SOBID DCT LODOK UZ24 ILVIS DCT ANBIX
Aircraft A20N/M-SDE2E3FGHIRWXY/LB1

Departure

Time 2026-04-21 22:01
Airport Santarém - Maestro Wilson Fonseca International Airport (SBSN)

Arrival

Time 2026-04-21 23:27
Airport Atlas Brasil Cantanhede International Airport (SBBV)
Time Latitude Longitude Altitude Speed Heading
2026-04-21 21:42 -2.42345 -54.78432 214 ft 0 kts 177°
2026-04-21 21:50 -2.42340 -54.78432 212 ft 1 kts 177°
2026-04-21 21:50 -2.42334 -54.78433 209 ft 1 kts 180°
2026-04-21 21:50 -2.42327 -54.78433 212 ft 1 kts 187°
2026-04-21 21:51 -2.42319 -54.78432 209 ft 1 kts 202°
2026-04-21 21:51 -2.42318 -54.78432 209 ft 1 kts 210°
2026-04-21 21:51 -2.42323 -54.78437 211 ft 1 kts 228°
2026-04-21 21:51 -2.42326 -54.78442 212 ft 1 kts 246°
2026-04-21 21:52 -2.42327 -54.78449 209 ft 1 kts 263°
2026-04-21 21:52 -2.42326 -54.78455 212 ft 1 kts 279°
2026-04-21 21:52 -2.42323 -54.78461 205 ft 1 kts 297°
2026-04-21 21:52 -2.42319 -54.78466 214 ft 1 kts 309°
2026-04-21 21:53 -2.42315 -54.78471 210 ft 1 kts 307°
2026-04-21 21:53 -2.42312 -54.78475 208 ft 0 kts 304°
2026-04-21 21:56 -2.42309 -54.78481 214 ft 2 kts 300°
2026-04-21 21:56 -2.42304 -54.78509 206 ft 6 kts 265°
2026-04-21 21:56 -2.42319 -54.78559 216 ft 9 kts 242°
2026-04-21 21:56 -2.42332 -54.78595 208 ft 3 kts 284°
2026-04-21 21:57 -2.42315 -54.78623 212 ft 7 kts 307°
2026-04-21 21:57 -2.42274 -54.78665 206 ft 10 kts 317°
2026-04-21 21:57 -2.42213 -54.78718 211 ft 13 kts 319°
2026-04-21 21:57 -2.42168 -54.78798 211 ft 14 kts 280°
2026-04-21 21:58 -2.42178 -54.78906 208 ft 17 kts 262°
2026-04-21 21:58 -2.42194 -54.79034 214 ft 20 kts 263°
2026-04-21 21:58 -2.42213 -54.79182 206 ft 23 kts 262°
2026-04-21 21:58 -2.42250 -54.79349 210 ft 26 kts 255°
2026-04-21 21:59 -2.42282 -54.79528 207 ft 27 kts 261°
2026-04-21 21:59 -2.42316 -54.79719 205 ft 29 kts 259°
2026-04-21 21:59 -2.42350 -54.79922 207 ft 30 kts 266°
2026-04-21 21:59 -2.42379 -54.80132 206 ft 31 kts 260°
2026-04-21 22:00 -2.42437 -54.80286 211 ft 15 kts 234°
2026-04-21 22:00 -2.42419 -54.80327 208 ft 6 kts 12°
2026-04-21 22:00 -2.42402 -54.80294 213 ft 0 kts 76°
2026-04-21 22:00 -2.42388 -54.80199 209 ft 46 kts 83°
2026-04-21 22:01 -2.42291 -54.79651 214 ft 112 kts 80°
2026-04-21 22:01 -2.42146 -54.78717 317 ft 149 kts 82°
2026-04-21 22:01 -2.41992 -54.77681 843 ft 156 kts 81°
2026-04-21 22:01 -2.41621 -54.76620 1264 ft 172 kts 51°
2026-04-21 22:02 -2.40564 -54.76011 1765 ft 188 kts
2026-04-21 22:02 -2.39145 -54.76101 2094 ft 221 kts 348°
2026-04-21 22:02 -2.37532 -54.76481 2446 ft 252 kts 346°
2026-04-21 22:02 -2.35776 -54.76941 2978 ft 276 kts 345°
2026-04-21 22:03 -2.34049 -54.77775 3973 ft 275 kts 320°
2026-04-21 22:03 -2.32882 -54.79270 5077 ft 276 kts 297°
2026-04-21 22:03 -2.32132 -54.81056 5985 ft 282 kts 289°
2026-04-21 22:03 -2.31482 -54.82916 6887 ft 285 kts 288°
2026-04-21 22:04 -2.30811 -54.84798 7764 ft 289 kts 290°
2026-04-21 22:04 -2.30092 -54.86695 8624 ft 293 kts 291°
2026-04-21 22:04 -2.29334 -54.88602 9490 ft 297 kts 291°
2026-04-21 22:04 -2.28594 -54.90422 10189 ft 304 kts 292°
2026-04-21 22:05 -2.27817 -54.92312 10485 ft 325 kts 292°
2026-04-21 22:05 -2.26924 -54.94480 10746 ft 347 kts 292°
2026-04-21 22:05 -2.25993 -54.96739 11376 ft 353 kts 292°
2026-04-21 22:05 -2.25054 -54.99019 12146 ft 357 kts 292°
2026-04-21 22:06 -2.24105 -55.01325 12876 ft 361 kts 292°
2026-04-21 22:06 -2.23146 -55.03656 13607 ft 364 kts 292°
2026-04-21 22:06 -2.22176 -55.06017 14241 ft 368 kts 292°
2026-04-21 22:06 -2.21208 -55.08370 14855 ft 372 kts 292°
2026-04-21 22:07 -2.20219 -55.10777 15471 ft 376 kts 292°
2026-04-21 22:07 -2.19220 -55.13207 16077 ft 380 kts 292°
2026-04-21 22:07 -2.18212 -55.15658 16693 ft 383 kts 293°
2026-04-21 22:07 -2.17241 -55.18019 17252 ft 386 kts 293°
2026-04-21 22:08 -2.16213 -55.20518 17843 ft 390 kts 293°
2026-04-21 22:08 -2.15176 -55.23037 18379 ft 394 kts 293°
2026-04-21 22:08 -2.14129 -55.25582 18873 ft 397 kts 293°
2026-04-21 22:08 -2.13074 -55.28146 19364 ft 401 kts 293°
2026-04-21 22:09 -2.12011 -55.30730 19855 ft 404 kts 293°
2026-04-21 22:09 -2.10939 -55.33336 20341 ft 407 kts 293°
2026-04-21 22:09 -2.09856 -55.35967 20815 ft 411 kts 293°
2026-04-21 22:09 -2.08746 -55.38611 21290 ft 414 kts 296°
2026-04-21 22:10 -2.07374 -55.41147 21761 ft 416 kts 302°
2026-04-21 22:10 -2.05900 -55.43615 22223 ft 420 kts 301°
2026-04-21 22:10 -2.04403 -55.46137 22701 ft 423 kts 301°
2026-04-21 22:10 -2.02899 -55.48678 23149 ft 426 kts 301°
2026-04-21 22:11 -2.01381 -55.51246 23564 ft 430 kts 301°
2026-04-21 22:11 -1.99855 -55.53828 23943 ft 433 kts 301°
2026-04-21 22:11 -1.98317 -55.56429 24318 ft 436 kts 301°
2026-04-21 22:11 -1.96765 -55.59054 24681 ft 439 kts 301°
2026-04-21 22:12 -1.95206 -55.61688 25043 ft 442 kts 301°
2026-04-21 22:12 -1.93636 -55.64343 25384 ft 445 kts 301°
2026-04-21 22:12 -1.92051 -55.67022 25745 ft 448 kts 301°
2026-04-21 22:12 -1.90461 -55.69711 26075 ft 451 kts 301°
2026-04-21 22:13 -1.88857 -55.72420 26404 ft 454 kts 301°
2026-04-21 22:13 -1.87244 -55.75147 26737 ft 457 kts 301°
2026-04-21 22:13 -1.85620 -55.77890 27056 ft 460 kts 301°
2026-04-21 22:13 -1.83986 -55.80651 27372 ft 463 kts 301°
2026-04-21 22:14 -1.82344 -55.83427 27682 ft 465 kts 301°
2026-04-21 22:14 -1.80692 -55.86217 27989 ft 468 kts 301°
2026-04-21 22:14 -1.79028 -55.89028 28285 ft 471 kts 301°
2026-04-21 22:14 -1.77353 -55.91859 28573 ft 473 kts 301°
2026-04-21 22:15 -1.75693 -55.94664 28854 ft 476 kts 301°
2026-04-21 22:15 -1.74002 -55.97521 29135 ft 479 kts 301°
2026-04-21 22:15 -1.72303 -56.00390 29420 ft 481 kts 301°
2026-04-21 22:15 -1.70594 -56.03278 29677 ft 484 kts 301°
2026-04-21 22:16 -1.68873 -56.06185 29960 ft 486 kts 301°
2026-04-21 22:16 -1.67145 -56.09104 30215 ft 488 kts 301°
2026-04-21 22:16 -1.65414 -56.12028 30494 ft 490 kts 301°
2026-04-21 22:16 -1.63676 -56.14964 30753 ft 492 kts 301°
2026-04-21 22:17 -1.61932 -56.17910 31051 ft 493 kts 301°
2026-04-21 22:17 -1.60186 -56.20858 31410 ft 492 kts 301°
2026-04-21 22:17 -1.58445 -56.23799 31773 ft 492 kts 301°
2026-04-21 22:17 -1.56704 -56.26740 32145 ft 490 kts 301°
2026-04-21 22:18 -1.54969 -56.29671 32500 ft 490 kts 301°
2026-04-21 22:18 -1.53233 -56.32602 32833 ft 489 kts 301°
2026-04-21 22:18 -1.51522 -56.35491 33173 ft 488 kts 301°
2026-04-21 22:18 -1.49796 -56.38405 33496 ft 488 kts 301°
2026-04-21 22:19 -1.48067 -56.41325 33816 ft 487 kts 301°
2026-04-21 22:19 -1.46340 -56.44242 34098 ft 486 kts 301°
2026-04-21 22:19 -1.44618 -56.47150 34372 ft 486 kts 301°
2026-04-21 22:19 -1.42895 -56.50059 34626 ft 486 kts 301°
2026-04-21 22:20 -1.41179 -56.52957 34875 ft 485 kts 301°
2026-04-21 22:20 -1.39460 -56.55859 35133 ft 485 kts 301°
2026-04-21 22:20 -1.37746 -56.58753 35393 ft 484 kts 301°
2026-04-21 22:20 -1.36031 -56.61648 35639 ft 484 kts 301°
2026-04-21 22:21 -1.34317 -56.64540 35905 ft 483 kts 301°
2026-04-21 22:21 -1.32619 -56.67407 36163 ft 483 kts 301°
2026-04-21 22:21 -1.30898 -56.70312 36417 ft 482 kts 301°
2026-04-21 22:21 -1.29191 -56.73193 36669 ft 482 kts 301°
2026-04-21 22:22 -1.27484 -56.76074 36905 ft 481 kts 301°
2026-04-21 22:22 -1.25780 -56.78951 37147 ft 481 kts 301°
2026-04-21 22:22 -1.24078 -56.81823 37366 ft 480 kts 301°
2026-04-21 22:22 -1.22379 -56.84691 37589 ft 480 kts 301°
2026-04-21 22:23 -1.20680 -56.87558 37797 ft 479 kts 301°
2026-04-21 22:23 -1.17283 -56.93290 37874 ft 478 kts 301°
2026-04-21 22:24 -1.13902 -56.98996 37866 ft 478 kts 301°
2026-04-21 22:24 -1.10520 -57.04703 37867 ft 477 kts 301°
2026-04-21 22:25 -1.07135 -57.10414 37875 ft 477 kts 301°
2026-04-21 22:25 -1.03753 -57.16120 37869 ft 477 kts 301°
2026-04-21 22:26 -1.00373 -57.21823 37870 ft 477 kts 301°
2026-04-21 22:26 -0.97567 -57.26557 37866 ft 476 kts 301°
2026-04-21 22:27 -0.94193 -57.32250 37868 ft 476 kts 301°
2026-04-21 22:27 -0.90821 -57.37938 37872 ft 475 kts 301°
2026-04-21 22:28 -0.87455 -57.43617 37873 ft 475 kts 301°
2026-04-21 22:28 -0.84087 -57.49297 37870 ft 475 kts 301°
2026-04-21 22:29 -0.80721 -57.54975 37882 ft 475 kts 301°
2026-04-21 22:29 -0.77355 -57.60651 37877 ft 475 kts 301°
2026-04-21 22:30 -0.73992 -57.66325 37880 ft 475 kts 302°
2026-04-21 22:30 -0.70626 -57.72000 37872 ft 475 kts 302°
2026-04-21 22:31 -0.67178 -57.77624 37878 ft 474 kts 306°
2026-04-21 22:31 -0.62958 -57.82664 37872 ft 472 kts 315°
2026-04-21 22:32 -0.58442 -57.87433 37888 ft 473 kts 315°
2026-04-21 22:32 -0.53930 -57.92223 37877 ft 473 kts 315°
2026-04-21 22:33 -0.49414 -57.97014 37880 ft 474 kts 315°
2026-04-21 22:33 -0.44924 -58.01774 37887 ft 474 kts 314°
2026-04-21 22:34 -0.40373 -58.06599 37884 ft 474 kts 314°
2026-04-21 22:34 -0.35877 -58.11366 37887 ft 474 kts 314°
2026-04-21 22:35 -0.31355 -58.16159 37883 ft 474 kts 314°
2026-04-21 22:35 -0.26831 -58.20956 37895 ft 474 kts 314°
2026-04-21 22:36 -0.20042 -58.28153 37875 ft 474 kts 314°
2026-04-21 22:36 -0.15519 -58.32947 37875 ft 474 kts 314°
2026-04-21 22:37 -0.10989 -58.37749 37874 ft 474 kts 314°
2026-04-21 22:37 -0.06460 -58.42549 37866 ft 475 kts 314°
2026-04-21 22:38 -0.01931 -58.47351 37877 ft 475 kts 314°
2026-04-21 22:38 0.02594 -58.52148 37869 ft 475 kts 314°
2026-04-21 22:39 0.07126 -58.56952 37875 ft 475 kts 314°
2026-04-21 22:39 0.11659 -58.61757 37875 ft 475 kts 314°
2026-04-21 22:40 0.16196 -58.66566 37870 ft 476 kts 314°
2026-04-21 22:40 0.20734 -58.71377 37865 ft 476 kts 314°
2026-04-21 22:41 0.25277 -58.76193 37877 ft 476 kts 314°
2026-04-21 22:41 0.29821 -58.81011 37877 ft 477 kts 314°
2026-04-21 22:42 0.34370 -58.85834 37868 ft 477 kts 314°
2026-04-21 22:42 0.38919 -58.90656 37880 ft 477 kts 314°
2026-04-21 22:43 0.43443 -58.95453 37873 ft 477 kts 314°
2026-04-21 22:43 0.47994 -59.00278 37888 ft 478 kts 314°
2026-04-21 22:44 0.52551 -59.05109 37873 ft 478 kts 314°
2026-04-21 22:44 0.57109 -59.09942 37879 ft 478 kts 314°
2026-04-21 22:45 0.61666 -59.14774 37879 ft 478 kts 314°
2026-04-21 22:45 0.66228 -59.19611 37870 ft 478 kts 314°
2026-04-21 22:46 0.70786 -59.24444 37873 ft 478 kts 314°
2026-04-21 22:46 0.75348 -59.29281 37874 ft 478 kts 314°
2026-04-21 22:47 0.79918 -59.34109 37872 ft 478 kts 316°
2026-04-21 22:47 0.84786 -59.38634 37874 ft 478 kts 318°
2026-04-21 22:48 0.89671 -59.43150 37876 ft 478 kts 318°
2026-04-21 22:48 0.94556 -59.47668 37875 ft 479 kts 318°
2026-04-21 22:49 0.99444 -59.52189 37868 ft 479 kts 318°
2026-04-21 22:49 1.04331 -59.56709 37872 ft 479 kts 318°
2026-04-21 22:50 1.09222 -59.61231 37877 ft 479 kts 318°
2026-04-21 22:50 1.14112 -59.65753 37869 ft 479 kts 318°
2026-04-21 22:51 1.19004 -59.70273 37861 ft 479 kts 318°
2026-04-21 22:51 1.23887 -59.74783 37798 ft 476 kts 318°
2026-04-21 22:52 1.26309 -59.77021 37400 ft 473 kts 318°
2026-04-21 22:52 1.28725 -59.79254 36798 ft 473 kts 318°
2026-04-21 22:52 1.31141 -59.81486 36072 ft 474 kts 318°
2026-04-21 22:52 1.33565 -59.83726 35349 ft 475 kts 318°
2026-04-21 22:53 1.35999 -59.85975 34636 ft 477 kts 319°
2026-04-21 22:53 1.38436 -59.88227 33924 ft 478 kts 319°
2026-04-21 22:53 1.40883 -59.90488 33143 ft 479 kts 319°
2026-04-21 22:53 1.43326 -59.92743 32428 ft 478 kts 319°
2026-04-21 22:54 1.45766 -59.94997 31713 ft 477 kts 318°
2026-04-21 22:54 1.48199 -59.97245 30976 ft 476 kts 318°
2026-04-21 22:54 1.50629 -59.99490 30276 ft 475 kts 318°
2026-04-21 22:54 1.53045 -60.01723 29693 ft 470 kts 317°
2026-04-21 22:55 1.55394 -60.03894 29092 ft 464 kts 317°
2026-04-21 22:55 1.57750 -60.06073 28467 ft 459 kts 317°
2026-04-21 22:55 1.60077 -60.08225 27850 ft 454 kts 317°
2026-04-21 22:55 1.62379 -60.10355 27242 ft 449 kts 317°
2026-04-21 22:56 1.64660 -60.12465 26662 ft 444 kts 317°
2026-04-21 22:56 1.66917 -60.14551 26100 ft 439 kts 317°
2026-04-21 22:56 1.69145 -60.16611 25550 ft 434 kts 317°
2026-04-21 22:56 1.71354 -60.18654 24988 ft 430 kts 317°
2026-04-21 22:57 1.73493 -60.20633 24447 ft 426 kts 317°
2026-04-21 22:57 1.75703 -60.22678 23917 ft 422 kts 317°
2026-04-21 22:57 1.77846 -60.24661 23402 ft 418 kts 316°
2026-04-21 22:57 1.79969 -60.26625 22793 ft 413 kts 316°
2026-04-21 22:58 1.82066 -60.28565 22198 ft 409 kts 316°
2026-04-21 22:58 1.84140 -60.30484 21632 ft 404 kts 316°
2026-04-21 22:58 1.86194 -60.32385 21049 ft 400 kts 316°
2026-04-21 22:58 1.88230 -60.34269 20467 ft 397 kts 316°
2026-04-21 22:59 1.90249 -60.36137 19907 ft 394 kts 316°
2026-04-21 22:59 1.92248 -60.37987 19371 ft 390 kts 316°
2026-04-21 22:59 1.94228 -60.39820 18818 ft 387 kts 316°
2026-04-21 22:59 1.96196 -60.41642 18296 ft 384 kts 316°
2026-04-21 23:00 1.98145 -60.43446 17706 ft 381 kts 316°
2026-04-21 23:00 2.00085 -60.45241 17102 ft 378 kts 316°
2026-04-21 23:00 2.02010 -60.47023 16500 ft 376 kts 316°
2026-04-21 23:00 2.03922 -60.48793 15909 ft 374 kts 316°
2026-04-21 23:01 2.05825 -60.50555 15352 ft 372 kts 316°
2026-04-21 23:01 2.07719 -60.52308 14797 ft 370 kts 316°
2026-04-21 23:01 2.09599 -60.54050 14252 ft 368 kts 316°
2026-04-21 23:01 2.11469 -60.55782 13735 ft 365 kts 316°
2026-04-21 23:02 2.13330 -60.57505 13172 ft 363 kts 316°
2026-04-21 23:02 2.15151 -60.59191 12636 ft 360 kts 316°
2026-04-21 23:02 2.16980 -60.60884 12103 ft 357 kts 317°
2026-04-21 23:02 2.18910 -60.62487 11553 ft 355 kts 324°
2026-04-21 23:03 2.20974 -60.63770 11037 ft 353 kts 329°
2026-04-21 23:03 2.23086 -60.65003 10523 ft 351 kts 329°
2026-04-21 23:03 2.25204 -60.66250 10113 ft 342 kts 329°
2026-04-21 23:03 2.27167 -60.67409 9922 ft 322 kts 329°
2026-04-21 23:04 2.29040 -60.68516 9731 ft 304 kts 329°
2026-04-21 23:04 2.30843 -60.69581 9264 ft 300 kts 329°
2026-04-21 23:04 2.32628 -60.70636 8886 ft 297 kts 329°
2026-04-21 23:04 2.34403 -60.71685 8499 ft 295 kts 329°
2026-04-21 23:05 2.36165 -60.72726 8106 ft 293 kts 330°
2026-04-21 23:05 2.37917 -60.73761 7739 ft 291 kts 330°
2026-04-21 23:05 2.39657 -60.74788 7359 ft 290 kts 330°
2026-04-21 23:05 2.41384 -60.75808 6993 ft 288 kts 330°
2026-04-21 23:06 2.43103 -60.76824 6616 ft 286 kts 330°
2026-04-21 23:06 2.44811 -60.77832 6272 ft 284 kts 330°
2026-04-21 23:06 2.46506 -60.78833 5892 ft 282 kts 330°
2026-04-21 23:06 2.48196 -60.79831 5519 ft 281 kts 331°
2026-04-21 23:07 2.49876 -60.80822 5149 ft 279 kts 331°
2026-04-21 23:07 2.51542 -60.81807 4777 ft 278 kts 331°
2026-04-21 23:07 2.53200 -60.82786 4417 ft 276 kts 331°
2026-04-21 23:07 2.54832 -60.83750 4267 ft 267 kts 332°
2026-04-21 23:08 2.56396 -60.84675 4163 ft 255 kts 332°
2026-04-21 23:08 2.57893 -60.85560 4073 ft 245 kts 332°
2026-04-21 23:08 2.59328 -60.86406 3991 ft 234 kts 332°
2026-04-21 23:08 2.60688 -60.87210 3948 ft 220 kts 332°
2026-04-21 23:09 2.61962 -60.87962 3953 ft 209 kts 332°
2026-04-21 23:09 2.63234 -60.88710 3955 ft 212 kts 332°
2026-04-21 23:09 2.64499 -60.89454 3954 ft 211 kts 332°
2026-04-21 23:09 2.65742 -60.90187 3956 ft 201 kts 332°
2026-04-21 23:10 2.66934 -60.90892 3959 ft 200 kts 332°
2026-04-21 23:10 2.68136 -60.91600 3958 ft 200 kts 332°
2026-04-21 23:10 2.69331 -60.92305 3958 ft 199 kts 332°
2026-04-21 23:10 2.70612 -60.92760 3963 ft 195 kts 358°
2026-04-21 23:11 2.71920 -60.92544 3962 ft 191 kts 27°
2026-04-21 23:11 2.72947 -60.91746 3963 ft 186 kts 53°
2026-04-21 23:11 2.73574 -60.90637 3822 ft 182 kts 64°
2026-04-21 23:11 2.74174 -60.89511 3744 ft 186 kts 63°
2026-04-21 23:12 2.74767 -60.88356 3667 ft 186 kts 64°
2026-04-21 23:12 2.75355 -60.87203 3592 ft 187 kts 64°
2026-04-21 23:12 2.75944 -60.86049 3456 ft 185 kts 64°
2026-04-21 23:12 2.76526 -60.84907 3280 ft 183 kts 64°
2026-04-21 23:13 2.77087 -60.83808 3072 ft 175 kts 64°
2026-04-21 23:13 2.77643 -60.82715 2869 ft 183 kts 64°
2026-04-21 23:13 2.78238 -60.81546 2634 ft 189 kts 64°
2026-04-21 23:13 2.78836 -60.80374 2384 ft 190 kts 64°
2026-04-21 23:14 2.79232 -60.79597 2233 ft 189 kts 64°
2026-04-21 23:14 2.80030 -60.78032 1911 ft 190 kts 64°
2026-04-21 23:14 2.80627 -60.76860 1674 ft 188 kts 64°
2026-04-21 23:14 2.81023 -60.76082 1517 ft 190 kts 64°
2026-04-21 23:15 2.81619 -60.74913 1344 ft 188 kts 64°
2026-04-21 23:15 2.82395 -60.73400 1297 ft 172 kts 65°
2026-04-21 23:15 2.82747 -60.72700 1099 ft 163 kts 65°
2026-04-21 23:15 2.83478 -60.71261 782 ft 200 kts 64°
2026-04-21 23:16 2.83922 -60.70387 860 ft 216 kts 64°
2026-04-21 23:16 2.84645 -60.68971 1113 ft 241 kts 64°
2026-04-21 23:16 2.85440 -60.67429 1786 ft 254 kts 64°
2026-04-21 23:16 2.86299 -60.65875 2797 ft 257 kts 55°
2026-04-21 23:17 2.87632 -60.64680 3416 ft 265 kts 29°
2026-04-21 23:17 2.89402 -60.64196 3752 ft 269 kts
2026-04-21 23:17 2.91233 -60.64578 3922 ft 273 kts 335°
2026-04-21 23:17 2.92716 -60.65772 3996 ft 278 kts 308°
2026-04-21 23:18 2.93509 -60.67516 3997 ft 276 kts 280°
2026-04-21 23:18 2.93417 -60.69356 3999 ft 259 kts 251°
2026-04-21 23:18 2.92732 -60.70961 3999 ft 245 kts 243°
2026-04-21 23:18 2.91966 -60.72503 4001 ft 249 kts 243°
2026-04-21 23:19 2.91241 -60.74066 4004 ft 247 kts 245°
2026-04-21 23:19 2.90578 -60.75649 3999 ft 247 kts 248°
2026-04-21 23:19 2.89954 -60.77249 3996 ft 247 kts 249°
2026-04-21 23:19 2.89350 -60.78856 3997 ft 247 kts 249°
2026-04-21 23:20 2.88754 -60.80469 3994 ft 247 kts 249°
2026-04-21 23:20 2.88159 -60.82080 3992 ft 248 kts 249°
2026-04-21 23:20 2.87566 -60.83685 3990 ft 241 kts 249°
2026-04-21 23:20 2.86998 -60.85221 3991 ft 234 kts 249°
2026-04-21 23:21 2.86424 -60.86769 3969 ft 239 kts 249°
2026-04-21 23:21 2.85592 -60.88165 3882 ft 232 kts 221°
2026-04-21 23:21 2.84211 -60.88930 3605 ft 228 kts 189°
2026-04-21 23:21 2.82663 -60.88867 3327 ft 223 kts 159°
2026-04-21 23:22 2.81322 -60.88116 3042 ft 221 kts 144°
2026-04-21 23:22 2.80079 -60.87278 2932 ft 210 kts 144°
2026-04-21 23:22 2.78904 -60.86500 2884 ft 193 kts 144°
2026-04-21 23:22 2.77858 -60.85724 2646 ft 182 kts 130°
2026-04-21 23:23 2.77306 -60.84676 2509 ft 160 kts 101°
2026-04-21 23:23 2.77324 -60.83603 2451 ft 162 kts 77°
2026-04-21 23:23 2.77713 -60.82539 2384 ft 165 kts 65°
2026-04-21 23:23 2.78246 -60.81526 2314 ft 165 kts 63°
2026-04-21 23:24 2.78752 -60.80540 2255 ft 149 kts 64°
2026-04-21 23:24 2.79191 -60.79680 2191 ft 134 kts 64°
2026-04-21 23:24 2.79620 -60.78836 2034 ft 136 kts 64°
2026-04-21 23:24 2.80046 -60.78001 1892 ft 133 kts 64°
2026-04-21 23:25 2.80466 -60.77176 1726 ft 134 kts 64°
2026-04-21 23:25 2.80888 -60.76347 1567 ft 135 kts 64°
2026-04-21 23:25 2.81312 -60.75515 1383 ft 133 kts 64°
2026-04-21 23:25 2.81733 -60.74689 1229 ft 133 kts 64°
2026-04-21 23:26 2.82157 -60.73857 1078 ft 136 kts 64°
2026-04-21 23:26 2.82588 -60.73011 931 ft 137 kts 64°
2026-04-21 23:26 2.83021 -60.72161 756 ft 137 kts 64°
2026-04-21 23:26 2.83456 -60.71307 585 ft 139 kts 64°
2026-04-21 23:27 2.83897 -60.70447 379 ft 139 kts 64°
2026-04-21 23:27 2.84330 -60.69598 268 ft 124 kts 63°
2026-04-21 23:27 2.84589 -60.69104 271 ft 37 kts 59°
2026-04-21 23:27 2.84692 -60.68897 272 ft 30 kts 61°
2026-04-21 23:28 2.84796 -60.68689 276 ft 37 kts 59°
2026-04-21 23:28 2.84873 -60.68482 274 ft 23 kts 126°
2026-04-21 23:28 2.84763 -60.68437 272 ft 12 kts 208°
2026-04-21 23:28 2.84716 -60.68514 272 ft 15 kts 248°
2026-04-21 23:29 2.84664 -60.68605 274 ft 5 kts 239°